Flag for Canada Weather past 2 weeks in Longueuil, Quebec, Canada

Now
23 °F

Cold.


Feels Like: 18 °F
Forecast: 19 / 26 °F
Wind: 3 mph from South

Location: Mc Tavish

Current Time: Dec 19, 2014 at 10:36:12 AM

Latest Report: Dec 19, 2014 at 10:00 AM


Visibility: N/A

Pressure: 30.08 "Hg

Humidity: 78%

Dew point: 17 °F

Location of LongueuilLocation

Historic Weather in Longueuil — Graph

°F

Longueuil temperature yesterday

Maximum temperature yesterday: 34 °F (at 9:00 AM)
Minimum temperature yesterday: 29 °F (at 11:00 PM)
Average temperature yesterday: 31 °F

Past Weeks' High & Low Weather Summary

 TemperatureHumidityPressure
High34 °F (Dec 16, 9:00 PM)100% (Dec 6, 2:00 AM)30.82 "Hg (Dec 6, 2:00 AM)
Low9 °F (Dec 8, 9:00 AM)38% (Dec 7, 2:00 PM)29.55 "Hg (Dec 11, 5:00 AM)
Average26 °F83%30.10 "Hg
* Reported Dec 4 9:00 AM — Dec 19 9:00 AM, Longueuil, Weather by CustomWeather, © 2014

Note: Actual official high and low records may vary slightly from our data, if they occured in-between our weather recording intervals... More about our weather records

Advertising

Longueuil weather history for previous 24 hours

 ConditionsComfort  
Time TempWeatherWind HumidityBarometerVisibility
9:00 AM
Dec 19
25 °FCold.2 mph80%30.06 "HgN/A
8:00 AM25 °FCold.2 mph75%30.03 "HgN/A
7:00 AM25 °FChilly.3 mph77%30.01 "HgN/A
6:00 AM26 °FChilly.3 mph81%29.98 "HgN/A
5:00 AM27 °FChilly.2 mph79%29.97 "HgN/A
4:00 AM28 °FChilly.2 mph81%29.96 "HgN/A
3:00 AM28 °FChilly.3 mph79%29.96 "HgN/A
2:00 AM28 °FChilly.3 mph80%29.95 "HgN/A
1:00 AM29 °FChilly.2 mph78%29.93 "HgN/A
12:00 AM29 °FChilly.2 mph85%29.93 "HgN/A
11:00 PM
Dec 18
29 °FChilly.3 mph86%29.93 "HgN/A
10:00 PM29 °FChilly.3 mph85%29.93 "HgN/A
9:00 PM29 °FChilly.3 mph83%29.92 "HgN/A
8:00 PM30 °FChilly.2 mph83%29.93 "HgN/A
7:00 PM30 °FChilly.2 mph82%29.91 "HgN/A
6:00 PM31 °FChilly.2 mph84%29.91 "HgN/A
5:00 PM31 °FChilly.3 mph83%29.89 "HgN/A
4:00 PM32 °FChilly.3 mph84%29.88 "HgN/A
3:00 PM31 °FChilly.2 mph88%29.86 "HgN/A
2:00 PM31 °FChilly.3 mph91%29.86 "HgN/A
1:00 PM33 °FChilly.2 mph87%29.84 "HgN/A
12:00 PM31 °FChilly.5 mph88%29.85 "HgN/A
11:00 AM31 °FChilly.3 mph88%29.85 "HgN/A
10:00 AM33 °FChilly.1 mph83%29.85 "HgN/A
Weather by CustomWeather, © 2014

See weather overviewHow to use our weather pages